Погода в Новосильском

Россия / Липецкая область     52°05′34″N   38°36′59″E
темп.,
°C
ветер,
м/с
пор.,
м/с
влажн.,
%
обл.,
%
осадки,
мм/ч
давл.,
гПа
погр.,
м
13 июня, вс
вс1300:00+16з228894 0.1 100821
03:00+14з339474 0.1 100848
06:00+15з249547 0.0 1008146
09:00+19юз238120 0.0 1009655
12:00+22юз346638 0.4 10091404
15:00+23юз4561100 0.6 10081863
18:00+21юз3676100 0.3 1009300
21:00+17ююз338945 0.4 101044
14 июня, пн
пн1400:00+16ююз229289 0.0 101125
03:00+15ююз229114 0.0 101215
06:00+17ююз118623 0.0 101361
09:00+21в11724 0.1 1014480
12:00+24всв226124 0.7 10141167
15:00+25св23598 0.7 10141460
18:00+23всв2375100 1.0 101485
21:00+19св2284100 1.4 101517
15 июня, вт
вт1500:00+17св22885 0.0 101416
03:00+16с229077 0.0 101421
06:00+17св2592100 0.1 1014133
09:00+20св3487100 1.9 1014182
12:00+22юв1174100 1.3 1013609
15:00+21ююз1181100 3.1 1012254
18:00+19ссз2388100 1.4 101141
21:00+18ссз2288100 1.9 101019
16 июня, ср
ср1600:00+18сз2287100 0.1 101017
03:00+17зюз3390100 0.3 101047
06:00+17сз369376 0.1 1010153
09:00+18зсз2392100 0.1 1010122
12:00+21зсз238459 0.9 1011254
15:00+24ссз456952 2.4 10101061
18:00+22ссв47825 1.6 1011556
21:00+18ссв5129184 6.9 1013281
17 июня, чт
чт1700:00+17ссв51295100 0.5 1014334
03:00+15ссв6139563 0.5 1015393
06:00+15ссв6139378 0.0 1016414
09:00+18св711795 0.0 1018666
12:00+20св79682 0.0 10181067
15:00+21св79660 0.0 10191279
18:00+20св710740 0.0 1019974
21:00+16ссв513860 0.0 1020346